Total_Precipitation_Accumulation
1.71 1.65 1.58 1.46 1.37 1.36 1.45 1.65 1.94 1.89 1.53 1.21 1.15 1.10 1.10 1.08 1.19 1.10 1.00 1.23 1.27 1.26 1.28 1.30 1.27 1.26 1.36 1.49 1.67 1.92 2.13 2.22 2.20 2.24 2.30 2.30 2.35 2.51
1.59 1.56 1.50 1.43 1.40 1.40 1.45 1.52 1.67 1.83 1.68 1.27 1.09 1.05 1.06 1.05 1.17 1.04 1.01 1.24 1.22 1.20 1.16 1.12 1.12 1.17 1.26 1.38 1.46 1.59 1.84 2.00 1.99 2.00 2.10 2.19 2.28 2.38
1.50 1.48 1.44 1.39 1.40 1.38 1.41 1.47 1.52 1.60 1.60 1.26 1.06 1.03 1.10 1.09 1.11 1.04 0.99 0.97 0.95 1.06 1.03 1.01 0.99 1.04 1.16 1.27 1.36 1.43 1.58 1.72 1.84 1.91 2.02 2.13 2.20 2.21
1.43 1.44 1.42 1.43 1.50 1.51 1.52 1.51 1.50 1.47 1.48 1.35 1.12 1.02 0.99 0.94 0.92 0.94 0.93 0.92 0.86 1.00 0.98 0.95 0.98 1.03 1.10 1.15 1.19 1.27 1.36 1.44 1.56 1.68 1.76 1.88 2.00 2.10
1.37 1.39 1.39 1.42 1.51 1.53 1.53 1.51 1.44 1.40 1.39 1.37 1.21 1.07 1.03 0.97 0.94 0.92 0.90 0.89 0.83 0.92 0.96 0.94 0.97 1.00 1.05 1.12 1.15 1.15 1.17 1.23 1.30 1.41 1.52 1.59 1.69 1.84
1.34 1.33 1.32 1.31 1.31 1.31 1.31 1.31 1.32 1.34 1.36 1.38 1.29 1.16 1.08 1.04 1.04 1.06 1.02 0.92 0.86 0.79 0.86 0.85 0.89 0.92 0.93 0.98 1.04 1.05 1.06 1.13 1.21 1.30 1.44 1.50 1.53 1.66
1.38 1.34 1.26 1.22 1.15 1.13 1.11 1.11 1.14 1.25 1.35 1.40 1.33 1.20 1.08 1.06 1.05 0.98 1.01 0.99 0.94 0.84 0.80 0.76 0.74 0.73 0.75 0.84 0.93 1.04 1.11 1.22 1.36 1.45 1.56 1.67 1.74 1.80
1.27 1.19 1.13 1.13 1.09 1.11 1.12 1.10 1.16 1.29 1.41 1.40 1.27 1.11 0.93 0.87 0.94 1.03 1.12 1.17 1.10 0.84 0.81 0.84 0.80 0.79 0.74 0.76 0.95 1.06 1.17 1.29 1.44 1.51 1.57 1.63 1.72 1.82
1.15 1.06 1.00 0.93 0.94 0.87 0.96 1.04 1.05 1.13 1.19 1.17 1.10 0.94 0.87 0.86 1.06 1.25 1.22 1.15 0.97 0.77 0.82 0.90 0.83 0.84 0.79 0.85 1.03 1.05 1.15 1.28 1.42 1.51 1.58 1.61 1.66 1.76
1.00 0.94 0.88 0.86 0.85 0.86 0.92 0.99 0.91 0.86 0.86 0.82 0.84 0.88 0.90 0.91 1.07 1.29 1.28 1.22 1.03 0.87 0.85 0.97 0.84 0.83 0.79 0.84 0.99 0.97 1.01 1.14 1.30 1.44 1.57 1.60 1.63 1.71
0.86 0.87 0.89 0.83 0.92 1.05 1.04 1.01 0.87 0.77 0.81 0.88 0.93 0.93 0.98 0.99 1.04 1.33 1.47 1.50 1.31 0.98 0.82 0.85 0.77 0.77 0.83 0.88 0.95 1.02 1.01 1.09 1.23 1.35 1.42 1.53 1.63 1.69
0.82 0.84 0.94 0.89 0.98 1.09 0.99 0.96 0.88 0.76 0.74 0.75 0.74 0.74 0.72 0.77 0.91 1.09 1.49 1.79 1.50 1.15 0.80 0.89 0.91 0.97 1.20 0.94 0.90 0.95 0.99 1.10 1.21 1.27 1.30 1.40 1.51 1.50
0.78 0.75 0.77 0.97 1.02 1.01 0.92 0.79 0.83 0.86 0.75 0.66 0.66 0.65 0.64 0.65 0.69 0.77 1.07 1.68 1.88 1.36 0.79 1.23 1.42 1.14 1.32 1.07 0.92 0.98 1.07 1.21 1.29 1.30 1.31 1.35 1.41 1.49
0.72 0.65 0.71 0.93 0.90 0.84 0.77 0.81 0.93 0.88 0.73 0.71 0.70 0.69 0.66 0.62 0.62 0.66 0.77 0.97 1.28 1.36 1.01 1.42 1.91 1.51 1.59 1.34 1.07 1.08 1.13 1.33 1.58 1.63 1.56 1.57 1.51 1.51
0.75 0.85 0.88 0.84 0.76 0.71 0.74 0.79 0.77 0.72 0.78 0.87 0.80 0.69 0.63 0.62 0.64 0.69 0.72 0.80 0.89 0.94 0.98 1.12 1.53 1.61 1.80 1.76 1.39 1.19 1.32 1.45 1.73 1.99 1.88 1.67 1.49 1.43
0.84 0.90 0.85 0.76 0.70 0.68 0.72 0.72 0.68 0.69 0.82 0.90 0.84 0.71 0.65 0.69 0.75 0.82 0.93 0.95 1.05 0.98 0.94 1.00 1.18 1.55 1.71 1.48 1.53 1.44 1.46 1.81 1.99 2.16 2.03 1.77 1.53 1.39
0.91 0.77 0.69 0.67 0.66 0.63 0.63 0.63 0.66 0.73 0.80 0.80 0.85 0.84 0.77 0.76 0.78 0.88 1.08 1.21 1.26 1.09 0.98 0.93 0.96 1.10 1.31 1.43 1.49 1.40 1.50 1.74 1.95 2.11 1.93 1.77 1.67 1.54
0.91 0.76 0.70 0.65 0.62 0.58 0.57 0.60 0.63 0.69 0.77 0.86 0.90 0.90 0.91 0.89 0.89 0.91 1.10 1.30 1.31 1.15 1.04 0.95 0.98 1.09 1.12 1.14 1.34 1.52 1.56 1.74 1.85 1.81 1.55 1.59 1.67 1.51
0.85 0.79 0.72 0.68 0.65 0.62 0.63 0.64 0.64 0.64 0.76 0.92 1.00 1.01 1.02 0.99 1.01 1.06 1.14 1.23 1.21 1.08 0.95 0.88 1.03 1.41 1.47 1.08 0.90 1.23 1.61 1.71 1.60 1.52 1.36 1.40 1.63 1.52
0.74 0.76 0.74 0.71 0.71 0.73 0.75 0.77 0.77 0.76 0.82 0.92 0.98 1.03 1.11 1.17 1.15 1.14 1.18 1.23 1.18 0.99 0.82 0.71 0.84 1.31 1.80 1.61 1.29 1.15 1.28 1.51 1.62 1.64 1.40 1.26 1.35 1.36
0.69 0.69 0.68 0.71 0.76 0.80 0.82 0.85 0.89 0.94 0.97 1.08 1.09 1.10 1.16 1.28 1.22 1.13 1.12 1.08 1.03 0.94 0.84 0.67 0.65 0.92 1.29 1.46 1.31 1.03 1.10 1.24 1.45 1.82 1.77 1.60 1.38 1.19
0.69 0.70 0.69 0.70 0.77 0.83 0.85 0.89 0.95 0.97 1.02 1.11 1.15 1.18 1.22 1.31 1.28 1.12 1.03 1.02 0.94 0.87 0.81 0.68 0.63 0.75 1.01 1.34 1.18 0.90 0.90 0.94 0.99 1.08 1.36 1.75 2.17 2.21
0.75 0.74 0.74 0.76 0.82 0.87 0.92 0.93 0.96 0.98 1.04 1.15 1.20 1.19 1.19 1.17 1.06 1.03 1.00 1.01 1.02 0.95 0.89 0.84 0.76 0.78 0.86 0.96 1.02 0.90 0.80 0.78 0.78 0.85 1.06 1.13 1.27 1.53